KC5TIL-3 Weather Reports


Display with metric or nautical units.
time (UTC)temp
F
wind
direction
speed
MPH
gust
MPH
rain 1hr
in
rain 24hr
in
rain mn
in
humidity
%
barometer
mb
20260902045453 87 125 7.0 15.0 0.00 0.00 0.00 25 1012.8
20260902044955 87 118 10.0 18.0 0.00 0.00 0.00 24 1012.8
20260902044457 88 115 11.0 15.0 0.00 0.00 0.00 23 1011.8
20260902043956 88 107 10.0 16.0 0.00 0.00 0.00 22 1011.8
20260902043457 88 141 12.0 13.0 0.00 0.00 0.00 21 1011.8
20260902042959 89 130 11.0 8.0 0.00 0.00 0.00 20 1011.8
20260902042458 89 121 5.0 8.0 0.00 0.00 0.00 20 1011.8
20260902042000 89 125 7.0 8.0 0.00 0.00 0.00 19 1011.8
20260902041502 89 122 6.0 8.0 0.00 0.00 0.00 19 1011.8
20260902041000 89 123 7.0 7.0 0.00 0.00 0.00 19 1011.8
20260902040502 89 127 4.0 8.0 0.00 0.00 0.00 19 1011.8
20260902040004 90 125 4.0 7.0 0.00 0.00 0.00 19 1011.8
20260902035503 90 121 6.0 7.0 0.00 0.00 0.00 19 1011.8
20260902035004 90 123 5.0 8.0 0.00 0.00 0.00 19 1011.8
20260902033950 90 115 5.0 7.0 0.00 0.00 0.00 18 1011.8
20260902033452 90 118 4.0 9.0 0.00 0.00 0.00 18 1011.8
20260902032452 91 126 4.0 9.0 0.00 0.00 0.00 18 1011.8
20260902031954 91 116 5.0 9.0 0.00 0.00 0.00 18 1011.8
20260902031456 91 139 6.0 8.0 0.00 0.00 0.00 17 1011.8
20260902030955 91 117 7.0 9.0 0.00 0.00 0.00 17 1011.8
20260902030456 92 110 6.0 9.0 0.00 0.00 0.00 17 1011.8
20260902025958 92 116 7.0 9.0 0.00 0.00 0.00 17 1011.8
20260902025457 92 119 6.0 9.0 0.00 0.00 0.00 17 1011.8
20260902024959 92 112 7.0 8.0 0.00 0.00 0.00 17 1011.8
20260902023959 92 121 7.0 10.0 0.00 0.00 0.00 17 1010.8
20260902023451 92 116 8.0 10.0 0.00 0.00 0.00 17 1010.8
20260902022953 92 113 8.0 11.0 0.00 0.00 0.00 17 1010.8
20260902022452 92 137 7.0 10.0 0.00 0.00 0.00 17 1010.8
20260902021949 92 123 8.0 12.0 0.00 0.00 0.00 17 1010.8
20260902021451 93 107 9.0 11.0 0.00 0.00 0.00 17 1010.8
20260902020940 93 114 9.0 10.0 0.00 0.00 0.00 17 1010.8
20260902020442 93 113 5.0 10.0 0.00 0.00 0.00 17 1010.8
20260902015943 93 119 9.0 10.0 0.00 0.00 0.00 17 1010.8
20260902015432 93 108 8.0 9.0 0.00 0.00 0.00 17 1010.8
20260902014934 93 113 7.0 9.0 0.00 0.00 0.00 16 1010.8
20260902014436 93 116 6.0 8.0 0.00 0.00 0.00 16 1010.8
20260902013930 94 109 6.0 10.0 0.00 0.00 0.00 16 1010.8
20260902013432 94 114 7.0 11.0 0.00 0.00 0.00 16 1010.8
20260902012932 94 113 8.0 9.0 0.00 0.00 0.00 16 1010.8
20260902012430 94 115 7.0 10.0 0.00 0.00 0.00 16 1010.8
20260902011932 94 114 9.0 10.0 0.00 0.00 0.00 16 1010.8
20260902011429 94 119 7.0 12.0 0.00 0.00 0.00 16 1010.8
20260902010927 94 115 6.0 10.0 0.00 0.00 0.00 16 1010.8
20260902010429 94 119 7.0 10.0 0.00 0.00 0.00 16 1010.8
20260902005931 94 149 5.0 10.0 0.00 0.00 0.00 16 1010.8
20260902005430 95 122 5.0 12.0 0.00 0.00 0.00 16 1010.8
20260902004932 95 116 7.0 11.0 0.00 0.00 0.00 16 1010.8
20260902004433 95 130 7.0 12.0 0.00 0.00 0.00 16 1010.8
20260902003927 95 105 9.0 12.0 0.00 0.00 0.00 16 1010.8
20260902003429 95 107 8.0 12.0 0.00 0.00 0.00 16 1010.8
20260902002931 95 123 7.0 13.0 0.00 0.00 0.00 16 1010.8
20260902002429 95 104 10.0 13.0 0.00 0.00 0.00 16 1010.8
20260902001931 95 127 10.0 12.0 0.00 0.00 0.00 16 1010.8
20260902001433 95 108 7.0 13.0 0.00 0.00 0.00 16 1010.8
20260902000932 96 134 9.0 15.0 0.00 0.00 0.00 16 1010.8
20260902000434 96 115 13.0 13.0 0.00 0.00 0.00 16 1010.8
20260901235935 96 127 8.0 15.0 0.00 0.00 0.00 13 1010.8
20260901235434 97 137 7.0 13.0 0.00 0.00 0.00 13 1010.8
20260901234936 96 125 9.0 14.0 0.00 0.00 0.00 13 1010.8
20260901234433 97 117 10.0 10.0 0.00 0.00 0.00 13 1010.8
20260901233932 97 128 8.0 9.0 0.00 0.00 0.00 13 1010.8
20260901233434 97 125 4.0 10.0 0.00 0.00 0.00 13 1010.8
20260901232936 97 117 6.0 7.0 0.00 0.00 0.00 13 1010.8
20260901232434 97 117 3.0 10.0 0.00 0.00 0.00 13 1010.8
20260901231936 97 84 5.0 10.0 0.00 0.00 0.00 13 1010.8
20260901231438 97 82 6.0 12.0 0.00 0.00 0.00 13 1010.8
20260901230937 97 98 8.0 14.0 0.00 0.00 0.00 13 1010.8
20260901230438 97 119 7.0 13.0 0.00 0.00 0.00 13 1010.8
20260901225940 97 116 9.0 15.0 0.00 0.00 0.00 13 1010.8
20260901225439 98 136 11.0 11.0 0.00 0.00 0.00 13 1010.8
20260901224941 97 109 8.0 12.0 0.00 0.00 0.00 13 1010.8
20260901223941 98 119 6.0 10.0 0.00 0.00 0.00 13 1010.8
20260901223443 98 139 4.0 11.0 0.00 0.00 0.00 13 1010.8
20260901222940 97 115 8.0 10.0 0.00 0.00 0.00 13 1010.8
20260901222439 97 88 6.0 11.0 0.00 0.00 0.00 13 1010.8
20260901221941 97 168 6.0 10.0 0.00 0.00 0.00 13 1010.8
20260901221443 97 192 7.0 15.0 0.00 0.00 0.00 13 1010.8
20260901220941 97 162 4.0 12.0 0.00 0.00 0.00 13 1010.8
20260901220438 97 114 8.0 12.0 0.00 0.00 0.00 13 1010.8
20260901215940 97 137 8.0 12.0 0.00 0.00 0.00 13 1010.8
20260901215439 99 107 5.0 10.0 0.00 0.00 0.00 13 1010.8
20260901214940 99 160 4.0 7.0 0.00 0.00 0.00 13 1010.8
20260901214442 98 243 0.0 12.0 0.00 0.00 0.00 13 1010.8
20260901213941 98 136 8.0 11.0 0.00 0.00 0.00 13 1010.8
20260901213443 96 112 8.0 7.0 0.00 0.00 0.00 13 1010.8
20260901212935 97 118 3.0 8.0 0.00 0.00 0.00 13 1010.8
20260901212434 97 117 4.0 12.0 0.00 0.00 0.00 13 1010.8
20260901211936 97 124 7.0 11.0 0.00 0.00 0.00 13 1010.8
20260901211437 97 100 6.0 11.0 0.00 0.00 0.00 13 1010.8
20260901210936 97 110 8.0 10.0 0.00 0.00 0.00 13 1010.8
20260901210438 98 194 4.0 12.0 0.00 0.00 0.00 13 1010.8
20260901205940 96 113 8.0 11.0 0.00 0.00 0.00 16 1011.8
20260901205438 97 129 8.0 10.0 0.00 0.00 0.00 16 1011.8
20260901204940 97 131 8.0 11.0 0.00 0.00 0.00 16 1011.8
20260901204442 97 133 6.0 13.0 0.00 0.00 0.00 16 1011.8
20260901203941 96 118 7.0 12.0 0.00 0.00 0.00 16 1011.8
20260901203442 97 141 6.0 7.0 0.00 0.00 0.00 16 1011.8
20260901202944 97 108 4.0 8.0 0.00 0.00 0.00 16 1011.8
20260901202443 96 79 5.0 8.0 0.00 0.00 0.00 16 1011.8
20260901201945 96 106 4.0 9.0 0.00 0.00 0.00 16 1011.8
20260901201442 97 107 4.0 10.0 0.00 0.00 0.00 16 1011.8
20260901200940 96 114 3.0 14.0 0.00 0.00 0.00 16 1011.8
20260901200442 96 199 6.0 12.0 0.00 0.00 0.00 16 1011.8
20260901195943 96 128 3.0 12.0 0.00 0.00 0.00 16 1011.8
20260901195442 95 101 8.0 13.0 0.00 0.00 0.00 16 1011.8
20260901194944 96 130 9.0 12.0 0.00 0.00 0.00 16 1011.8
20260901194441 97 127 7.0 12.0 0.00 0.00 0.00 16 1011.8
20260901193940 97 132 9.0 8.0 0.00 0.00 0.00 16 1011.8
20260901193442 98 115 0.0 3.0 0.00 0.00 0.00 15 1011.8
20260901192944 96 116 0.0 12.0 0.00 0.00 0.00 16 1012.8
20260901192442 95 115 4.0 13.0 0.00 0.00 0.00 16 1012.8
20260901191944 94 116 11.0 6.0 0.00 0.00 0.00 16 1012.8
20260901191445 95 117 3.0 10.0 0.00 0.00 0.00 16 1012.8
20260901190939 95 131 0.0 9.0 0.00 0.00 0.00 16 1012.8
20260901190441 95 139 4.0 14.0 0.00 0.00 0.00 16 1012.8
20260901185937 95 191 7.0 13.0 0.00 0.00 0.00 16 1012.8
20260901185436 94 111 10.0 10.0 0.00 0.00 0.00 16 1012.8
20260901184938 95 121 0.0 12.0 0.00 0.00 0.00 16 1012.8
20260901184439 95 109 10.0 7.0 0.00 0.00 0.00 16 1012.8
20260901183938 97 98 3.0 11.0 0.00 0.00 0.00 16 1012.8
20260901183440 95 223 4.0 12.0 0.00 0.00 0.00 16 1012.8
20260901182941 94 111 9.0 14.0 0.00 0.00 0.00 16 1013.8
20260901182440 96 135 8.0 12.0 0.00 0.00 0.00 16 1013.8
20260901181942 96 130 9.0 8.0 0.00 0.00 0.00 16 1013.8
20260901181443 96 121 5.0 8.0 0.00 0.00 0.00 16 1013.8
20260901180942 95 151 6.0 12.0 0.00 0.00 0.00 16 1013.8
20260901180444 96 133 6.0 5.0 0.00 0.00 0.00 16 1013.8
20260901175946 97 140 0.0 8.0 0.00 0.00 0.00 16 1013.8
20260901175444 95 158 4.0 9.0 0.00 0.00 0.00 17 1013.8
20260901174946 94 144 6.0 9.0 0.00 0.00 0.00 17 1013.8
20260901174438 95 14 4.0 7.0 0.00 0.00 0.00 17 1013.8
20260901173936 94 246 4.0 6.0 0.00 0.00 0.00 17 1013.8
20260901173437 94 162 0.0 8.0 0.00 0.00 0.00 17 1013.8
20260901172939 95 159 7.0 8.0 0.00 0.00 0.00 17 1013.8
20260901172432 94 109 4.0 10.0 0.00 0.00 0.00 17 1013.8
20260901171934 94 124 7.0 10.0 0.00 0.00 0.00 17 1013.8
20260901171435 94 199 4.0 11.0 0.00 0.00 0.00 17 1013.8
20260901170934 93 116 8.0 12.0 0.00 0.00 0.00 17 1013.8
20260901170431 92 114 7.0 9.0 0.00 0.00 0.00 18 1014.8
20260901165933 94 115 4.0 11.0 0.00 0.00 0.00 17 1014.8
20260901165427 94 127 6.0 7.0 0.00 0.00 0.00 17 1014.8
20260901164923 94 157 3.0 10.0 0.00 0.00 0.00 17 1014.8
20260901164420 93 121 6.0 7.0 0.00 0.00 0.00 18 1014.8
20260901163421 93 161 4.0 10.0 0.00 0.00 0.00 18 1014.8
20260901162922 93 124 4.0 9.0 0.00 0.00 0.00 18 1014.8
20260901162416 94 208 4.0 8.0 0.00 0.00 0.00 18 1014.8
20260901161918 93 189 3.0 7.0 0.00 0.00 0.00 18 1014.8
20260901161420 92 202 0.0 7.0 0.00 0.00 0.00 19 1014.8
20260901160918 91 213 3.0 8.0 0.00 0.00 0.00 19 1014.8
20260901160420 91 211 5.0 7.0 0.00 0.00 0.00 19 1014.8
20260901155922 92 148 4.0 5.0 0.00 0.00 0.00 19 1014.8
20260901155420 91 191 3.0 9.0 0.00 0.00 0.00 19 1014.8
20260901154922 91 130 6.0 7.0 0.00 0.00 0.00 19 1014.8
20260901154424 91 177 0.0 8.0 0.00 0.00 0.00 20 1014.8
20260901153923 90 193 4.0 10.0 0.00 0.00 0.00 20 1014.8
20260901153425 90 206 7.0 6.0 0.00 0.00 0.00 21 1014.8
20260901152926 90 199 4.0 7.0 0.00 0.00 0.00 21 1014.8
20260901152420 89 131 4.0 8.0 0.00 0.00 0.00 22 1014.8
20260901151922 90 65 4.0 7.0 0.00 0.00 0.00 23 1014.8
20260901151424 89 246 4.0 6.0 0.00 0.00 0.00 25 1014.8
20260901150922 88 177 0.0 7.0 0.00 0.00 0.00 26 1014.8
20260901150424 88 199 3.0 8.0 0.00 0.00 0.00 27 1014.8
20260901145926 87 207 4.0 11.0 0.00 0.00 0.00 28 1014.8
20260901145425 87 213 6.0 7.0 0.00 0.00 0.00 28 1014.8
20260901144927 87 135 6.0 7.0 0.00 0.00 0.00 28 1014.8
20260901144428 87 219 5.0 10.0 0.00 0.00 0.00 28 1014.8
20260901143927 86 212 7.0 7.0 0.00 0.00 0.00 29 1014.8
20260901142420 86 183 3.0 5.0 0.00 0.00 0.00 31 1014.8
20260901141922 85 172 0.0 5.0 0.00 0.00 0.00 32 1014.8
20260901141424 85 169 0.0 5.0 0.00 0.00 0.00 32 1014.8
20260901140923 85 156 0.0 6.0 0.00 0.00 0.00 33 1014.8
20260901140425 85 200 3.0 7.0 0.00 0.00 0.00 33 1014.8
20260901135926 84 120 6.0 6.0 0.00 0.00 0.00 34 1014.8
20260901135425 85 132 3.0 4.0 0.00 0.00 0.00 33 1014.8
20260901134927 85 130 0.0 6.0 0.00 0.00 0.00 35 1014.8
20260901134429 84 129 0.0 5.0 0.00 0.00 0.00 35 1014.8
20260901133927 83 129 0.0 5.0 0.00 0.00 0.00 36 1014.8
20260901133429 83 126 4.0 5.0 0.00 0.00 0.00 36 1014.8
20260901132931 83 127 4.0 6.0 0.00 0.00 0.00 36 1014.8
20260901132430 82 126 4.0 6.0 0.00 0.00 0.00 37 1014.8
20260901131932 82 124 4.0 7.0 0.00 0.00 0.00 37 1014.8
20260901131433 82 124 4.0 7.0 0.00 0.00 0.00 38 1014.8
20260901130932 82 120 5.0 7.0 0.00 0.00 0.00 38 1014.8
20260901130434 81 130 0.0 7.0 0.00 0.00 0.00 38 1014.8
20260901125935 81 124 4.0 4.0 0.00 0.00 0.00 38 1014.8
20260901125434 81 191 0.0 3.0 0.00 0.00 0.00 38 1014.8
20260901124936 81 200 0.0 3.0 0.00 0.00 0.00 39 1014.8
20260901124438 81 201 0.0 5.0 0.00 0.00 0.00 40 1013.8
20260901123936 80 220 0.0 4.0 0.00 0.00 0.00 40 1013.8
20260901123438 80 188 3.0 4.0 0.00 0.00 0.00 40 1013.8
20260901122940 80 186 0.0 6.0 0.00 0.00 0.00 40 1013.8
20260901122439 80 200 3.0 7.0 0.00 0.00 0.00 40 1013.8
20260901121941 80 198 4.0 7.0 0.00 0.00 0.00 40 1013.8
20260901121442 80 215 5.0 6.0 0.00 0.00 0.00 39 1013.8
20260901120937 80 192 4.0 6.0 0.00 0.00 0.00 40 1013.8
20260901120438 80 181 4.0 6.0 0.00 0.00 0.00 40 1013.8
20260901115940 80 207 5.0 6.0 0.00 0.00 0.00 39 1013.8
20260901115434 80 211 4.0 7.0 0.00 0.00 0.00 39 1013.8
20260901114936 80 216 4.0 7.0 0.00 0.00 0.00 39 1013.8
20260901114438 80 218 5.0 6.0 0.00 0.00 0.00 39 1013.8
20260901113937 80 227 3.0 6.0 0.00 0.00 0.00 39 1013.8
20260901113438 80 201 3.0 8.0 0.00 0.00 0.00 39 1013.8
20260901112940 80 218 5.0 7.0 0.00 0.00 0.00 38 1013.8
20260901112439 81 225 3.0 7.0 0.00 0.00 0.00 38 1013.8
20260901111941 81 219 3.0 7.0 0.00 0.00 0.00 38 1013.8
20260901111438 81 211 5.0 7.0 0.00 0.00 0.00 37 1013.8
20260901110937 81 194 3.0 7.0 0.00 0.00 0.00 37 1013.8
20260901110439 81 215 4.0 8.0 0.00 0.00 0.00 36 1013.8
20260901105936 81 192 6.0 10.0 0.00 0.00 0.00 36 1013.8
20260901105435 81 212 7.0 7.0 0.00 0.00 0.00 36 1013.8
20260901104937 82 222 6.0 9.0 0.00 0.00 0.00 35 1013.8
20260901104438 82 191 5.0 9.0 0.00 0.00 0.00 35 1013.8
20260901103937 82 171 4.0 9.0 0.00 0.00 0.00 34 1013.8
20260901103434 82 196 6.0 7.0 0.00 0.00 0.00 34 1013.8
20260901102936 82 191 5.0 8.0 0.00 0.00 0.00 34 1013.8
20260901102430 82 186 5.0 10.0 0.00 0.00 0.00 34 1013.8
20260901101434 83 202 7.0 8.0 0.00 0.00 0.00 34 1013.8
20260901100932 83 175 5.0 10.0 0.00 0.00 0.00 34 1013.8
20260901100434 83 209 8.0 9.0 0.00 0.00 0.00 33 1013.8
20260901095936 83 223 6.0 9.0 0.00 0.00 0.00 33 1013.8
20260901095434 83 211 6.0 10.0 0.00 0.00 0.00 32 1013.8
20260901094932 83 195 7.0 11.0 0.00 0.00 0.00 33 1013.8
20260901094434 83 218 6.0 11.0 0.00 0.00 0.00 32 1013.8
20260901093928 83 200 9.0 12.0 0.00 0.00 0.00 32 1013.8
20260901093430 83 234 9.0 11.0 0.00 0.00 0.00 32 1013.8
20260901092931 84 159 7.0 10.0 0.00 0.00 0.00 31 1013.8
20260901092430 84 174 5.0 11.0 0.00 0.00 0.00 31 1013.8
20260901091932 84 213 7.0 10.0 0.00 0.00 0.00 31 1013.8
20260901091434 84 203 7.0 9.0 0.00 0.00 0.00 31 1013.8
20260901090928 84 201 7.0 10.0 0.00 0.00 0.00 31 1013.8
20260901090430 84 208 7.0 10.0 0.00 0.00 0.00 31 1013.8
20260901085931 84 215 6.0 8.0 0.00 0.00 0.00 30 1013.8
20260901085430 83 195 4.0 9.0 0.00 0.00 0.00 30 1013.8
20260901084932 83 159 5.0 9.0 0.00 0.00 0.00 30 1013.8
20260901084434 84 230 5.0 9.0 0.00 0.00 0.00 30 1013.8
20260901083932 84 201 4.0 9.0 0.00 0.00 0.00 30 1013.8
20260901083434 84 85 4.0 8.0 0.00 0.00 0.00 29 1013.8
20260901082936 84 174 4.0 7.0 0.00 0.00 0.00 29 1013.8
20260901082435 84 215 5.0 10.0 0.00 0.00 0.00 29 1013.8
20260901081937 84 123 6.0 10.0 0.00 0.00 0.00 29 1013.8
20260901081433 84 190 6.0 9.0 0.00 0.00 0.00 28 1013.8
20260901080932 84 135 4.0 7.0 0.00 0.00 0.00 27 1013.8
20260901080434 84 174 4.0 10.0 0.00 0.00 0.00 25 1013.8
20260901075936 85 165 4.0 10.0 0.00 0.00 0.00 25 1012.8
20260901075434 85 217 7.0 10.0 0.00 0.00 0.00 24 1012.8
20260901074936 85 201 7.0 11.0 0.00 0.00 0.00 23 1012.8
20260901074433 85 211 5.0 9.0 0.00 0.00 0.00 22 1012.8
20260901073932 84 194 5.0 9.0 0.00 0.00 0.00 22 1012.8
20260901073433 84 195 6.0 10.0 0.00 0.00 0.00 21 1012.8
20260901072935 84 140 6.0 8.0 0.00 0.00 0.00 20 1012.8
20260901072434 84 141 4.0 9.0 0.00 0.00 0.00 20 1012.8
20260901071936 84 159 7.0 9.0 0.00 0.00 0.00 20 1012.8
20260901071438 84 126 5.0 9.0 0.00 0.00 0.00 19 1012.8
20260901070936 84 132 5.0 9.0 0.00 0.00 0.00 19 1012.8
20260901070438 85 119 6.0 9.0 0.00 0.00 0.00 19 1012.8
20260901065940 85 127 6.0 8.0 0.00 0.00 0.00 19 1012.8
20260901065439 85 121 7.0 8.0 0.00 0.00 0.00 19 1012.8
20260901064940 85 118 7.0 8.0 0.00 0.00 0.00 18 1012.8
20260901064442 85 130 5.0 8.0 0.00 0.00 0.00 18 1012.8
20260901063941 85 128 6.0 7.0 0.00 0.00 0.00 18 1012.8
20260901062945 86 128 4.0 7.0 0.00 0.00 0.00 18 1012.8
20260901062443 86 128 4.0 8.0 0.00 0.00 0.00 18 1012.8
20260901061945 86 123 5.0 9.0 0.00 0.00 0.00 18 1012.8
20260901061447 86 121 6.0 9.0 0.00 0.00 0.00 18 1012.8
20260901060946 86 127 6.0 9.0 0.00 0.00 0.00 18 1012.8
20260901060447 86 114 7.0 12.0 0.00 0.00 0.00 18 1012.8
20260901055949 86 115 10.0 6.0 0.00 0.00 0.00 18 1012.8
20260901055448 87 135 3.0 7.0 0.00 0.00 0.00 18 1012.8
20260901054950 87 137 3.0 6.0 0.00 0.00 0.00 18 1012.8
20260901054452 87 137 4.0 5.0 0.00 0.00 0.00 18 1011.8
20260901053950 87 141 4.0 6.0 0.00 0.00 0.00 18 1011.8
20260901052954 87 131 4.0 6.0 0.00 0.00 0.00 18 1011.8
20260901052453 87 138 3.0 6.0 0.00 0.00 0.00 18 1011.8
20260901051954 87 137 0.0 6.0 0.00 0.00 0.00 18 1011.8
20260901051456 88 139 3.0 5.0 0.00 0.00 0.00 18 1011.8
20260901050955 88 133 4.0 6.0 0.00 0.00 0.00 18 1011.8
20260901045959 88 132 4.0 6.0 0.00 0.00 0.00 18 1011.8